Lincoln, IL

11:43 AM CDT on August 21, 2017 (GMT -0500)
Lincoln

Weather History for KAAA - January, 2014

Change the Weather History Date:

Monday, January 27, 2014

  Actual Average (KSPI) Record (KSPI)
Temperature  
Mean Temperature 6 °F -  
Max Temperature 13 °F 34 °F 65 °F (1944)
Min Temperature 0 °F 16 °F -10 °F (1963)
Degree Days  
Heating Degree Days 58    
Moisture  
Dew Point -7 °F    
Average Humidity 56    
Maximum Humidity 72    
Minimum Humidity 42    
Precipitation  
Precipitation 0.00 in - - ()
Sea Level Pressure  
Sea Level Pressure 30.37 in    
Wind  
Wind Speed 12 mph (NW)    
Max Wind Speed 20 mph    
Max Gust Speed 33 mph    
Visibility 10 miles    
Events      
Averages and records for this station are not official NWS values.
T = Trace of Precipitation, MM = Missing Value Source: NWS Daily Summary

Daily Weather History Graph

Daily Weather History Graph

Search for Another Location

Airport or City:

Trip Planner

Search our weather history database for the weather conditions in past years. The results will help you decide how hot, cold, wet, or windy it might be!

Date:

Astronomy

Jan. 27, 2014 Rise Set
Actual Time 7:10 AM CST 5:10 PM CST
Civil Twilight 6:41 AM CST 5:39 PM CST
Nautical Twilight 6:08 AM CST 6:11 PM CST
Astronomical Twilight 5:36 AM CST 6:44 PM CST
Moon 3:51 AM CST (1/27) 1:56 PM CST (1/27)
Length of Visible Light 10h 57m
Length of Day
9h 59m
Waning Crescent, 14% of the Moon is Illuminated
Jan 27
Waning Crescent
Jan 30
New
Feb 6
First Quarter
Feb 14
Full
Feb 22
Last Quarter

Hourly Weather History & Observations

Time (CST) Temp. Windchill Dew Point Humidity Pressure Visibility Wind Dir Wind Speed Gust Speed Precip Events Conditions
12:15 AM 13.6 °F -2.4 °F -3.8 °F 46% 30.04 in 10.0 mi WNW 16.1 mph 29.9 mph N/A   Scattered Clouds
12:35 AM 12.6 °F -5.3 °F -4.9 °F 46% 30.05 in 10.0 mi NW 19.6 mph 32.2 mph N/A   Clear
12:55 AM 11.1 °F -3.9 °F -5.6 °F 47% 30.07 in 10.0 mi NW 12.7 mph 33.4 mph N/A   Clear
1:15 AM 10.0 °F -7.1 °F -4.2 °F 53% 30.08 in 10.0 mi NW 16.1 mph 27.6 mph N/A   Clear
1:35 AM 9.3 °F -6.8 °F -4.9 °F 53% 30.11 in 10.0 mi NW 13.8 mph 29.9 mph N/A   Clear
1:55 AM 8.8 °F -6.8 °F -3.5 °F 58% 30.14 in 10.0 mi NW 12.7 mph 25.3 mph N/A   Clear
2:15 AM 7.7 °F -10.7 °F -5.1 °F 56% 30.15 in 10.0 mi WNW 17.3 mph 26.5 mph N/A   Clear
2:35 AM 7.5 °F -9.1 °F -5.1 °F 56% 30.16 in 10.0 mi NW 13.8 mph 25.3 mph N/A   Clear
2:55 AM 7.3 °F -7.9 °F -3.1 °F 62% 30.18 in 10.0 mi NW 11.5 mph 21.9 mph N/A   Scattered Clouds
3:15 AM 6.8 °F -10.7 °F -5.8 °F 56% 30.19 in 10.0 mi NW 15.0 mph 23.0 mph N/A   Mostly Cloudy
3:35 AM 6.3 °F -10.7 °F -5.8 °F 58% 30.20 in 10.0 mi NW 13.8 mph 21.9 mph N/A   Clear
3:55 AM 5.9 °F -9.7 °F -6.7 °F 56% 30.22 in 10.0 mi NW 11.5 mph 20.7 mph N/A   Clear
4:15 AM 5.7 °F -9.1 °F -6.3 °F 58% 30.23 in 10.0 mi NW 10.4 mph 19.6 mph N/A   Clear
4:35 AM 5.9 °F -8.0 °F -2.9 °F 67% 30.24 in 4.0 mi WNW 9.2 mph 20.7 mph N/A   Haze
4:55 AM 5.7 °F -11.4 °F -4.9 °F 62% 30.25 in 5.0 mi WNW 13.8 mph 21.9 mph N/A   Haze
5:15 AM 5.0 °F -10.8 °F -6.2 °F 60% 30.27 in 10.0 mi WNW 11.5 mph 21.9 mph N/A   Clear
5:35 AM 4.6 °F -9.5 °F -5.3 °F 64% 30.27 in 10.0 mi WNW 9.2 mph - N/A   Clear
5:55 AM 5.0 °F -10.8 °F -3.1 °F 69% 30.28 in 10.0 mi WNW 11.5 mph 17.3 mph N/A   Scattered Clouds
6:15 AM 5.2 °F -9.8 °F -2.0 °F 72% 30.29 in 4.0 mi WNW 10.4 mph 19.6 mph N/A   Haze
6:35 AM 4.6 °F -11.3 °F -4.2 °F 67% 30.30 in 10.0 mi NW 11.5 mph 18.4 mph N/A   Mostly Cloudy
6:55 AM 4.1 °F -11.1 °F -5.6 °F 64% 30.30 in 10.0 mi WNW 10.4 mph 20.7 mph N/A   Scattered Clouds
7:15 AM 4.1 °F -11.1 °F -6.0 °F 63% 30.32 in 10.0 mi WNW 10.4 mph 18.4 mph N/A   Scattered Clouds
7:35 AM 3.7 °F -10.6 °F -7.1 °F 61% 30.33 in 10.0 mi WNW 9.2 mph 17.3 mph N/A   Scattered Clouds
7:55 AM 4.6 °F -11.3 °F -5.8 °F 62% 30.34 in 10.0 mi WNW 11.5 mph 18.4 mph N/A   Scattered Clouds
8:15 AM 5.0 °F -10.0 °F -4.5 °F 65% 30.34 in 10.0 mi WNW 10.4 mph 16.1 mph N/A   Mostly Cloudy
8:35 AM 6.1 °F -10.2 °F -4.5 °F 62% 30.35 in 10.0 mi NW 12.7 mph 19.6 mph N/A   Mostly Cloudy
8:55 AM 4.6 °F -10.4 °F -6.0 °F 62% 30.36 in 3.0 mi WNW 10.4 mph 24.2 mph N/A   Haze
9:15 AM 6.1 °F -7.8 °F -7.6 °F 53% 30.37 in 10.0 mi WNW 9.2 mph 20.7 mph N/A   Scattered Clouds
9:35 AM 6.4 °F -8.2 °F -7.6 °F 53% 30.38 in 10.0 mi WNW 10.4 mph 20.7 mph N/A   Scattered Clouds
9:55 AM 7.5 °F -9.1 °F -8.0 °F 49% 30.39 in 10.0 mi WNW 13.8 mph 20.7 mph N/A   Scattered Clouds
10:15 AM 7.5 °F -10.3 °F -8.0 °F 49% 30.39 in 10.0 mi NW 16.1 mph 20.7 mph N/A   Mostly Cloudy
10:35 AM 8.1 °F -7.0 °F -8.1 °F 48% 30.39 in 10.0 mi WNW 11.5 mph 20.7 mph N/A   Scattered Clouds
10:55 AM 9.1 °F -6.4 °F -7.4 °F 47% 30.40 in 10.0 mi WNW 12.7 mph 18.4 mph N/A   Scattered Clouds
11:15 AM 8.6 °F -4.7 °F -8.3 °F 46% 30.40 in 10.0 mi WNW 9.2 mph 20.7 mph N/A   Scattered Clouds
11:35 AM 9.5 °F -6.6 °F -8.0 °F 45% 30.41 in 10.0 mi WNW 13.8 mph 21.9 mph N/A   Mostly Cloudy
11:55 AM 9.9 °F -4.7 °F -7.6 °F 45% 30.40 in 10.0 mi NW 11.5 mph 24.2 mph N/A   Mostly Cloudy
12:15 PM 9.3 °F -4.6 °F -8.0 °F 46% 30.39 in 10.0 mi West 10.4 mph 19.6 mph N/A   Mostly Cloudy
12:35 PM 9.5 °F -4.4 °F -7.2 °F 47% 30.38 in 10.0 mi NW 10.4 mph 17.3 mph N/A   Overcast
12:55 PM 10.4 °F -3.3 °F -6.7 °F 46% 30.39 in 10.0 mi WNW 10.4 mph 18.4 mph N/A   Overcast
1:15 PM 10.0 °F -5.2 °F -9.0 °F 42% 30.39 in 10.0 mi NW 12.7 mph 23.0 mph N/A   Scattered Clouds
1:35 PM 9.7 °F -5.0 °F -7.6 °F 46% 30.40 in 10.0 mi NW 11.5 mph 20.7 mph N/A   Mostly Cloudy
1:55 PM 10.2 °F -5.0 °F -6.7 °F 47% 30.39 in 10.0 mi NW 12.7 mph 19.6 mph N/A   Mostly Cloudy
2:15 PM 9.9 °F -4.7 °F -7.1 °F 46% 30.39 in 10.0 mi WNW 11.5 mph 20.7 mph N/A   Mostly Cloudy
2:35 PM 9.9 °F -4.7 °F -8.1 °F 44% 30.41 in 10.0 mi WNW 11.5 mph 23.0 mph N/A   Overcast
2:55 PM 8.6 °F -7.7 °F -6.7 °F 50% 30.42 in 10.0 mi NW 13.8 mph 20.7 mph N/A   Overcast
3:15 PM 8.4 °F -4.9 °F -6.9 °F 50% 30.43 in 10.0 mi WNW 9.2 mph 16.1 mph N/A   Overcast
3:35 PM 7.7 °F -7.4 °F -6.7 °F 52% 30.43 in 10.0 mi WNW 11.5 mph 18.4 mph N/A   Overcast
3:55 PM 8.1 °F -6.2 °F -6.5 °F 52% 30.44 in 10.0 mi WNW 10.4 mph 17.3 mph N/A   Overcast
4:15 PM 7.0 °F -5.7 °F -7.6 °F 51% 30.45 in 10.0 mi NW 8.1 mph 18.4 mph N/A   Mostly Cloudy
4:35 PM 6.3 °F -9.2 °F -8.3 °F 51% 30.45 in 10.0 mi NW 11.5 mph 18.4 mph N/A   Scattered Clouds
4:55 PM 5.4 °F -6.5 °F -8.7 °F 52% 30.46 in 10.0 mi NW 6.9 mph 18.4 mph N/A   Scattered Clouds
5:15 PM 5.0 °F -10.0 °F -9.4 °F 52% 30.47 in 10.0 mi NW 10.4 mph 18.4 mph N/A   Scattered Clouds
5:35 PM 4.3 °F -10.0 °F -9.4 °F 53% 30.47 in 10.0 mi NW 9.2 mph 17.3 mph N/A   Scattered Clouds
5:55 PM 3.7 °F -8.4 °F -9.2 °F 55% 30.48 in 10.0 mi NW 6.9 mph - N/A   Clear
6:15 PM 3.6 °F -7.3 °F -9.6 °F 54% 30.49 in 10.0 mi NNW 5.8 mph - N/A   Clear
6:35 PM 3.6 °F -8.7 °F -9.9 °F 54% 30.49 in 10.0 mi NW 6.9 mph - N/A   Clear
6:55 PM 3.2 °F -7.8 °F -9.4 °F 56% 30.50 in 10.0 mi NW 5.8 mph - N/A   Clear
7:15 PM 2.8 °F -6.6 °F -9.4 °F 57% 30.50 in 10.0 mi NW 4.6 mph - N/A   Clear
7:35 PM 2.8 °F -4.6 °F -9.0 °F 58% 30.50 in 10.0 mi WNW 3.5 mph - N/A   Clear
7:55 PM 2.5 °F -7.0 °F -9.0 °F 59% 30.51 in 10.0 mi NW 4.6 mph - N/A   Clear
8:15 PM 2.3 °F -7.2 °F -8.5 °F 61% 30.51 in 10.0 mi NW 4.6 mph - N/A   Clear
8:35 PM 2.1 °F -5.4 °F -8.5 °F 61% 30.51 in 10.0 mi NW 3.5 mph - N/A   Clear
8:55 PM 1.8 °F -5.8 °F -8.1 °F 63% 30.52 in 10.0 mi WNW 3.5 mph - N/A   Clear
9:15 PM 1.8 °F -5.8 °F -8.3 °F 63% 30.53 in 10.0 mi WNW 3.5 mph - N/A   Clear
9:35 PM 1.4 °F -8.3 °F -8.1 °F 64% 30.53 in 10.0 mi NW 4.6 mph - N/A   Clear
9:55 PM 1.4 °F -8.3 °F -8.5 °F 63% 30.53 in 10.0 mi NW 4.6 mph - N/A   Clear
10:15 PM 1.2 °F -6.4 °F -8.5 °F 64% 30.53 in 10.0 mi WNW 3.5 mph - N/A   Clear
10:35 PM 1.2 °F -6.4 °F -8.7 °F 63% 30.53 in 10.0 mi WNW 3.5 mph - N/A   Clear
10:55 PM 1.0 °F -6.7 °F -8.7 °F 64% 30.54 in 10.0 mi West 3.5 mph - N/A   Clear
11:15 PM 1.0 °F -8.7 °F -8.9 °F 63% 30.53 in 10.0 mi WNW 4.6 mph - N/A   Clear
11:35 PM 0.7 °F -10.7 °F -8.5 °F 65% 30.54 in 10.0 mi NW 5.8 mph - N/A   Clear
11:55 PM 0.5 °F -9.3 °F -8.5 °F 66% 30.53 in 10.0 mi NW 4.6 mph - N/A   Clear